| time (UTC) | temp F | wind direction | speed MPH | gust MPH | rain 1hr in | rain 24hr in | rain mn in | humidity % | barometer mb |
| 20260506071217 | 64 | 0.0 | 3.0 | 0.00 | 0.02 | 0.00 | 75 | 1010.3 | |
| 20260506070237 | 64 | 199 | 1.0 | 4.0 | 0.00 | 0.02 | 0.00 | 75 | 1010.4 |
| 20260506062217 | 65 | 0.0 | 1.0 | 0.00 | 0.02 | 0.00 | 72 | 1010.4 | |
| 20260506061217 | 65 | 0.0 | 2.0 | 0.00 | 0.02 | 0.00 | 71 | 1010.4 | |
| 20260506060237 | 65 | 236 | 0.0 | 2.0 | 0.00 | 0.02 | 0.00 | 71 | 1010.3 |
| 20260506051237 | 66 | 0.0 | 0.0 | 0.00 | 0.02 | 0.00 | 67 | 1011.0 | |
| 20260506050216 | 66 | 282 | 0.0 | 2.0 | 0.00 | 0.02 | 0.00 | 67 | 1011.1 |
| 20260506044216 | 66 | 0.0 | 2.0 | 0.00 | 0.02 | 0.00 | 65 | 1011.0 | |
| 20260506043216 | 67 | 235 | 1.0 | 4.0 | 0.00 | 0.02 | 0.00 | 65 | 1011.0 |
| 20260506042217 | 67 | 241 | 1.0 | 4.0 | 0.00 | 0.02 | 0.00 | 65 | 1011.1 |
| 20260506041316 | 67 | 184 | 1.0 | 6.0 | 0.00 | 0.02 | 0.00 | 64 | 1011.0 |
| 20260506040316 | 67 | 225 | 0.0 | 3.0 | 0.00 | 0.02 | 0.00 | 63 | 1010.9 |
| 20260506035317 | 67 | 147 | 0.0 | 4.0 | 0.00 | 0.02 | 0.02 | 63 | 1010.8 |
| 20260506034317 | 67 | 260 | 0.0 | 1.0 | 0.00 | 0.02 | 0.02 | 62 | 1011.0 |
| 20260506033317 | 67 | 0.0 | 4.0 | 0.00 | 0.02 | 0.02 | 62 | 1010.9 | |
| 20260506032317 | 68 | 0.0 | 1.0 | 0.00 | 0.02 | 0.02 | 61 | 1010.8 | |
| 20260506031317 | 68 | 246 | 0.0 | 2.0 | 0.00 | 0.02 | 0.02 | 61 | 1010.8 |
| 20260506030317 | 68 | 229 | 1.0 | 2.0 | 0.00 | 0.02 | 0.02 | 61 | 1010.7 |
| 20260506025317 | 68 | 125 | 0.0 | 2.0 | 0.00 | 0.02 | 0.02 | 60 | 1010.5 |
| 20260506024317 | 69 | 226 | 1.0 | 4.0 | 0.00 | 0.02 | 0.02 | 59 | 1010.7 |
| 20260506023317 | 69 | 176 | 1.0 | 2.0 | 0.00 | 0.02 | 0.02 | 58 | 1010.8 |
| 20260506022315 | 70 | 238 | 0.0 | 5.0 | 0.00 | 0.02 | 0.02 | 56 | 1010.7 |
| 20260506021315 | 70 | 212 | 2.0 | 6.0 | 0.00 | 0.02 | 0.02 | 53 | 1010.7 |
| 20260506020315 | 71 | 200 | 0.0 | 3.0 | 0.00 | 0.02 | 0.02 | 51 | 1010.6 |
| 20260506015316 | 71 | 146 | 0.0 | 2.0 | 0.00 | 0.02 | 0.02 | 50 | 1010.6 |
| 20260506014315 | 72 | 0.0 | 3.0 | 0.00 | 0.02 | 0.02 | 48 | 1010.4 | |
| 20260506013315 | 73 | 231 | 1.0 | 2.0 | 0.00 | 0.02 | 0.02 | 47 | 1010.3 |
| 20260506012315 | 73 | 226 | 1.0 | 8.0 | 0.00 | 0.02 | 0.02 | 45 | 1010.1 |
| 20260506011335 | 73 | 0.0 | 6.0 | 0.00 | 0.02 | 0.02 | 44 | 1010.0 | |
| 20260506010316 | 73 | 244 | 0.0 | 2.0 | 0.00 | 0.02 | 0.02 | 44 | 1010.0 |
| 20260506005315 | 74 | 0.0 | 5.0 | 0.00 | 0.02 | 0.02 | 44 | 1009.8 | |
| 20260506004316 | 74 | 0.0 | 1.0 | 0.00 | 0.02 | 0.02 | 43 | 1009.9 | |
| 20260506003316 | 74 | 174 | 0.0 | 4.0 | 0.00 | 0.02 | 0.02 | 41 | 1009.7 |
| 20260506002315 | 75 | 240 | 1.0 | 5.0 | 0.00 | 0.02 | 0.02 | 40 | 1009.6 |
| 20260506001316 | 75 | 215 | 0.0 | 3.0 | 0.00 | 0.02 | 0.02 | 39 | 1009.5 |
| 20260506000315 | 75 | 211 | 0.0 | 4.0 | 0.00 | 0.02 | 0.02 | 38 | 1009.4 |
| 20260505235315 | 76 | 236 | 0.0 | 2.0 | 0.00 | 0.02 | 0.02 | 37 | 1009.4 |
| 20260505234316 | 76 | 0.0 | 3.0 | 0.00 | 0.02 | 0.02 | 36 | 1009.3 | |
| 20260505233315 | 76 | 242 | 1.0 | 3.0 | 0.00 | 0.02 | 0.02 | 36 | 1009.2 |
| 20260505232315 | 76 | 0.0 | 0.0 | 0.00 | 0.02 | 0.02 | 35 | 1009.2 | |
| 20260505231316 | 77 | 0.0 | 0.0 | 0.00 | 0.02 | 0.02 | 34 | 1009.0 | |
| 20260505230315 | 77 | 251 | 0.0 | 1.0 | 0.00 | 0.02 | 0.02 | 34 | 1009.0 |
| 20260505225315 | 78 | 229 | 1.0 | 3.0 | 0.00 | 0.02 | 0.02 | 32 | 1008.7 |
| 20260505224315 | 78 | 210 | 1.0 | 3.0 | 0.00 | 0.02 | 0.02 | 32 | |
| 20260505223335 | 78 | 243 | 1.0 | 4.0 | 0.00 | 0.02 | 0.02 | 31 | |
| 20260505222355 | 78 | 211 | 2.0 | 5.0 | 0.00 | 0.02 | 0.02 | 30 | |
| 20260505221315 | 78 | 262 | 1.0 | 4.0 | 0.00 | 0.02 | 0.02 | 31 | |
| 20260505220316 | 79 | 0.0 | 1.0 | 0.00 | 0.02 | 0.02 | 31 | ||
| 20260505215315 | 79 | 231 | 1.0 | 4.0 | 0.00 | 0.02 | 0.02 | 30 | |
| 20260505214315 | 79 | 224 | 1.0 | 4.0 | 0.00 | 0.02 | 0.02 | 31 | |
| 20260505213315 | 79 | 233 | 1.0 | 7.0 | 0.00 | 0.02 | 0.02 | 31 | |
| 20260505212316 | 80 | 245 | 2.0 | 6.0 | 0.00 | 0.02 | 0.02 | 30 | |
| 20260505211315 | 81 | 234 | 1.0 | 5.0 | 0.00 | 0.02 | 0.02 | 32 | |
| 20260505210316 | 81 | 0.0 | 8.0 | 0.00 | 0.02 | 0.02 | 32 | ||
| 20260505205315 | 81 | 238 | 1.0 | 6.0 | 0.00 | 0.02 | 0.02 | 30 | |
| 20260505204315 | 81 | 233 | 1.0 | 5.0 | 0.00 | 0.02 | 0.02 | 32 | |
| 20260505203315 | 81 | 237 | 2.0 | 4.0 | 0.00 | 0.02 | 0.02 | 32 | |
| 20260505202315 | 81 | 250 | 1.0 | 4.0 | 0.00 | 0.02 | 0.02 | 33 | 1008.2 |
| 20260505201315 | 80 | 253 | 1.0 | 4.0 | 0.00 | 0.02 | 0.02 | 33 | 1008.1 |
| 20260505200315 | 80 | 244 | 1.0 | 7.0 | 0.00 | 0.02 | 0.02 | 33 | 1008.2 |
| 20260505195335 | 81 | 236 | 2.0 | 4.0 | 0.00 | 0.02 | 0.02 | 33 | 1008.3 |
| 20260505194317 | 81 | 243 | 3.0 | 8.0 | 0.00 | 0.02 | 0.02 | 32 | 1008.3 |
| 20260505193315 | 81 | 235 | 0.0 | 3.0 | 0.00 | 0.02 | 0.02 | 35 | 1008.5 |
| 20260505192317 | 81 | 219 | 0.0 | 2.0 | 0.00 | 0.02 | 0.02 | 35 | 1008.9 |
| 20260505191316 | 81 | 182 | 1.0 | 3.0 | 0.00 | 0.02 | 0.02 | 36 | 1009.0 |
| 20260505190317 | 81 | 187 | 0.0 | 1.0 | 0.00 | 0.02 | 0.02 | 36 | 1009.0 |
| 20260505185318 | 81 | 184 | 2.0 | 9.0 | 0.00 | 0.02 | 0.02 | 33 | 1009.0 |
| 20260505184317 | 81 | 220 | 3.0 | 8.0 | 0.00 | 0.02 | 0.02 | 35 | 1009.3 |
| 20260505183317 | 81 | 209 | 1.0 | 3.0 | 0.00 | 0.02 | 0.02 | 36 | 1009.6 |
| 20260505182317 | 81 | 197 | 5.0 | 7.0 | 0.00 | 0.02 | 0.02 | 36 | 1009.5 |
| 20260505182116 | 81 | 211 | 1.0 | 13.0 | 0.00 | 0.02 | 0.02 | 37 | 1009.4 |
| 20260505181116 | 82 | 241 | 1.0 | 5.0 | 0.00 | 0.02 | 0.02 | 37 | 1009.6 |
| 20260505180135 | 81 | 263 | 0.0 | 5.0 | 0.00 | 0.02 | 0.02 | 38 | 1009.6 |
| 20260505175116 | 81 | 244 | 0.0 | 3.0 | 0.00 | 0.02 | 0.02 | 38 | 1009.7 |
| 20260505174116 | 81 | 249 | 1.0 | 4.0 | 0.00 | 0.02 | 0.02 | 37 | 1009.8 |
| 20260505173115 | 81 | 0.0 | 5.0 | 0.00 | 0.02 | 0.02 | 37 | 1010.0 | |
| 20260505172116 | 81 | 253 | 1.0 | 6.0 | 0.00 | 0.02 | 0.02 | 39 | 1010.1 |
| 20260505171136 | 81 | 243 | 0.0 | 1.0 | 0.00 | 0.02 | 0.02 | 42 | 1010.2 |
| 20260505170116 | 81 | 207 | 2.0 | 7.0 | 0.00 | 0.02 | 0.02 | 43 | 1010.3 |
| 20260505165135 | 81 | 238 | 0.0 | 3.0 | 0.00 | 0.02 | 0.02 | 41 | 1010.5 |
| 20260505164136 | 80 | 0.0 | 1.0 | 0.00 | 0.02 | 0.02 | 43 | 1010.7 | |
| 20260505163115 | 79 | 253 | 0.0 | 2.0 | 0.00 | 0.02 | 0.02 | 42 | 1010.8 |
| 20260505162116 | 79 | 48 | 0.0 | 6.0 | 0.00 | 0.02 | 0.02 | 47 | 1010.8 |
| 20260505161116 | 79 | 288 | 1.0 | 3.0 | 0.00 | 0.02 | 0.02 | 45 | 1010.9 |
| 20260505160116 | 78 | 246 | 0.0 | 3.0 | 0.00 | 0.02 | 0.02 | 45 | 1011.1 |
| 20260505153116 | 75 | 0.0 | 1.0 | 0.00 | 0.02 | 0.02 | 48 | 1011.3 | |
| 20260505152116 | 75 | 200 | 1.0 | 9.0 | 0.00 | 0.02 | 0.02 | 47 | 1011.6 |
| 20260505151115 | 74 | 0.0 | 0.0 | 0.00 | 0.02 | 0.02 | 52 | 1011.4 | |
| 20260505150116 | 73 | 0.0 | 0.0 | 0.00 | 0.02 | 0.02 | 51 | 1011.4 | |
| 20260505140135 | 69 | 256 | 0.0 | 2.0 | 0.00 | 0.02 | 0.02 | 64 | 1011.7 |